TimeEST,TemperatureF,Dew PointF,Humidity,Sea Level PressureIn,VisibilityMPH,Wind Direction,Wind SpeedMPH,Gust SpeedMPH,PrecipitationIn,Events,Conditions,WindDirDegrees,DateUTC
12:15 AM,22.5,19.6,89,29.99,10.0,North,3.5,-,N/A,,Overcast,10,2013-12-23 05:15:00
12:35 AM,22.6,19.8,89,29.99,10.0,Calm,Calm,-,N/A,,Mostly Cloudy,0,2013-12-23 05:35:00
12:55 AM,22.6,19.8,89,29.99,10.0,Calm,Calm,-,N/A,,Overcast,0,2013-12-23 05:55:00
1:15 AM,22.1,19.2,89,30.00,10.0,NNW,4.6,-,N/A,,Overcast,330,2013-12-23 06:15:00
1:35 AM,22.1,19.2,89,30.00,10.0,Calm,Calm,-,N/A,,Overcast,0,2013-12-23 06:35:00
1:55 AM,22.1,19.2,89,30.00,10.0,Calm,Calm,-,N/A,,Overcast,0,2013-12-23 06:55:00
2:15 AM,22.1,19.4,89,30.00,10.0,Calm,Calm,-,N/A,,Overcast,0,2013-12-23 07:15:00
2:35 AM,22.1,19.4,89,30.00,10.0,Calm,Calm,-,N/A,,Overcast,0,2013-12-23 07:35:00
2:55 AM,22.1,19.4,89,30.01,10.0,Calm,Calm,-,N/A,,Mostly Cloudy,0,2013-12-23 07:55:00
3:15 AM,22.5,19.6,89,30.02,10.0,Calm,Calm,-,N/A,,Overcast,0,2013-12-23 08:15:00
3:35 AM,22.1,19.4,89,30.01,10.0,Calm,Calm,-,N/A,,Overcast,0,2013-12-23 08:35:00
3:55 AM,22.1,19.4,89,30.01,10.0,Calm,Calm,-,N/A,,Overcast,0,2013-12-23 08:55:00
4:15 AM,22.1,19.4,89,30.00,10.0,Calm,Calm,-,N/A,,Overcast,0,2013-12-23 09:15:00
4:35 AM,22.1,19.4,89,30.01,10.0,Calm,Calm,-,N/A,,Overcast,0,2013-12-23 09:35:00
4:55 AM,22.1,19.4,89,30.02,10.0,Calm,Calm,-,N/A,,Overcast,0,2013-12-23 09:55:00
5:15 AM,22.5,19.4,88,30.02,10.0,Calm,Calm,-,N/A,,Overcast,0,2013-12-23 10:15:00
5:35 AM,22.1,19.4,89,30.02,10.0,Calm,Calm,-,N/A,,Overcast,0,2013-12-23 10:35:00
5:55 AM,22.1,19.4,89,30.02,10.0,Calm,Calm,-,N/A,,Overcast,0,2013-12-23 10:55:00
6:15 AM,22.6,19.6,88,30.00,10.0,Calm,Calm,-,N/A,,Overcast,0,2013-12-23 11:15:00
6:35 AM,22.8,19.8,88,30.02,10.0,NW,3.5,-,N/A,,Overcast,320,2013-12-23 11:35:00
6:55 AM,22.1,19.4,89,30.01,10.0,Calm,Calm,-,N/A,,Overcast,0,2013-12-23 11:55:00
7:15 AM,22.8,19.9,89,30.02,10.0,Calm,Calm,-,N/A,,Overcast,0,2013-12-23 12:15:00
7:35 AM,23.0,20.1,89,30.01,7.0,Calm,Calm,-,N/A,,Overcast,0,2013-12-23 12:35:00
7:55 AM,23.4,20.3,88,30.03,7.0,Calm,Calm,-,N/A,,Overcast,0,2013-12-23 12:55:00
8:15 AM,23.4,20.3,88,30.04,7.0,Calm,Calm,-,N/A,,Overcast,0,2013-12-23 13:15:00
8:35 AM,23.4,20.3,88,30.04,5.0,Calm,Calm,-,N/A,Snow,Light Snow,0,2013-12-23 13:35:00
8:55 AM,23.4,20.3,88,30.04,5.0,Calm,Calm,-,N/A,,Overcast,0,2013-12-23 13:55:00
9:15 AM,23.4,20.3,88,30.04,5.0,Calm,Calm,-,N/A,,Overcast,0,2013-12-23 14:15:00
9:35 AM,23.4,20.3,88,30.05,4.0,North,3.5,-,N/A,Snow,Light Snow,350,2013-12-23 14:35:00
9:55 AM,23.4,20.3,88,30.05,5.0,Calm,Calm,-,N/A,Snow,Light Snow,0,2013-12-23 14:55:00
10:15 AM,23.4,20.3,88,30.05,5.0,Calm,Calm,-,N/A,Snow,Light Snow,0,2013-12-23 15:15:00
10:35 AM,23.4,20.3,88,30.04,5.0,Calm,Calm,-,N/A,,Overcast,0,2013-12-23 15:35:00
10:55 AM,23.4,20.3,88,30.03,5.0,Calm,Calm,-,N/A,,Overcast,0,2013-12-23 15:55:00
11:15 AM,23.5,20.3,87,30.04,4.0,Calm,Calm,-,N/A,Snow,Light Snow,0,2013-12-23 16:15:00
11:35 AM,23.5,20.3,87,30.04,4.0,NNW,3.5,-,N/A,Snow,Light Snow,330,2013-12-23 16:35:00
11:55 AM,23.4,20.3,88,30.04,3.0,North,3.5,-,N/A,Snow,Light Snow,360,2013-12-23 16:55:00
12:15 PM,23.4,20.3,88,30.04,2.5,North,3.5,-,N/A,Snow,Light Snow,350,2013-12-23 17:15:00
12:35 PM,23.4,20.3,88,30.03,2.5,North,3.5,-,N/A,Snow,Light Snow,360,2013-12-23 17:35:00
12:55 PM,23.4,20.3,88,30.04,3.0,North,3.5,-,N/A,Snow,Light Snow,350,2013-12-23 17:55:00
1:15 PM,23.4,20.3,88,30.03,3.0,North,3.5,-,N/A,Snow,Light Snow,350,2013-12-23 18:15:00
1:35 PM,23.5,20.3,87,30.02,4.0,Calm,Calm,-,N/A,,Overcast,0,2013-12-23 18:35:00
1:55 PM,23.5,20.5,88,30.03,4.0,Calm,Calm,-,N/A,,Overcast,0,2013-12-23 18:55:00
2:15 PM,23.9,21.0,89,30.04,4.0,Calm,Calm,-,N/A,,Overcast,0,2013-12-23 19:15:00
2:35 PM,24.3,21.2,88,30.05,4.0,Calm,Calm,-,N/A,,Overcast,0,2013-12-23 19:35:00
2:55 PM,23.9,21.0,89,30.05,4.0,NNW,3.5,-,N/A,,Overcast,330,2013-12-23 19:55:00
3:15 PM,23.5,20.5,88,30.06,4.0,NNW,4.6,-,N/A,,Overcast,340,2013-12-23 20:15:00
3:35 PM,23.4,20.3,88,30.07,4.0,Calm,Calm,-,N/A,,Overcast,0,2013-12-23 20:35:00
3:55 PM,23.4,20.3,88,30.08,4.0,Calm,Calm,-,N/A,,Overcast,0,2013-12-23 20:55:00
4:15 PM,23.4,20.3,88,30.08,4.0,Calm,Calm,-,N/A,,Overcast,0,2013-12-23 21:15:00
4:35 PM,23.4,20.3,88,30.10,5.0,Calm,Calm,-,N/A,,Overcast,0,2013-12-23 21:35:00
4:55 PM,23.4,20.3,88,30.10,5.0,Calm,Calm,-,N/A,,Overcast,0,2013-12-23 21:55:00
5:15 PM,23.4,20.3,88,30.10,5.0,Calm,Calm,-,N/A,,Overcast,0,2013-12-23 22:15:00
5:35 PM,23.5,20.7,89,30.10,5.0,Calm,Calm,-,N/A,,Overcast,0,2013-12-23 22:35:00
5:55 PM,23.9,20.8,88,30.10,5.0,North,3.5,-,N/A,,Overcast,10,2013-12-23 22:55:00
6:15 PM,23.9,20.8,88,30.12,5.0,Calm,Calm,-,N/A,,Overcast,0,2013-12-23 23:15:00
6:35 PM,24.3,21.2,88,30.13,7.0,North,3.5,-,N/A,,Overcast,360,2013-12-23 23:35:00
6:55 PM,24.3,21.0,87,30.15,7.0,Calm,Calm,-,N/A,,Overcast,0,2013-12-23 23:55:00
7:15 PM,24.6,21.2,87,30.16,7.0,Calm,Calm,-,N/A,,Overcast,0,2013-12-24 00:15:00
7:35 PM,24.6,21.2,87,30.17,7.0,NW,3.5,-,N/A,,Overcast,310,2013-12-24 00:35:00
7:55 PM,24.8,21.2,86,30.17,10.0,WNW,3.5,-,N/A,,Overcast,300,2013-12-24 00:55:00
8:15 PM,24.8,21.0,86,30.17,10.0,NNW,3.5,-,N/A,,Overcast,340,2013-12-24 01:15:00
8:35 PM,24.6,20.7,85,30.17,10.0,Calm,Calm,-,N/A,,Overcast,0,2013-12-24 01:35:00
8:55 PM,24.6,20.3,84,30.17,10.0,Calm,Calm,-,N/A,,Overcast,0,2013-12-24 01:55:00
9:15 PM,24.6,20.1,83,30.18,10.0,Calm,Calm,-,N/A,,Overcast,0,2013-12-24 02:15:00
9:35 PM,24.4,19.9,83,30.18,10.0,Calm,Calm,-,N/A,,Overcast,0,2013-12-24 02:35:00
9:55 PM,24.3,19.6,82,30.19,10.0,Calm,Calm,-,N/A,Snow,Light Snow,0,2013-12-24 02:55:00
10:15 PM,24.1,19.6,83,30.18,7.0,Calm,Calm,-,N/A,Snow,Light Snow,0,2013-12-24 03:15:00
10:35 PM,23.9,19.4,83,30.19,10.0,Calm,Calm,-,N/A,Snow,Light Snow,0,2013-12-24 03:35:00
10:55 PM,23.5,18.9,82,30.19,10.0,NW,3.5,-,N/A,Snow,Light Snow,320,2013-12-24 03:55:00
11:15 PM,23.4,18.3,81,30.20,10.0,Calm,Calm,-,N/A,,Overcast,0,2013-12-24 04:15:00
11:35 PM,23.0,18.0,81,30.20,10.0,NW,3.5,-,N/A,,Overcast,310,2013-12-24 04:35:00
11:55 PM,22.1,16.5,79,30.20,10.0,NW,3.5,-,N/A,,Overcast,310,2013-12-24 04:55:00